Location: La Trinit�
(48.1620°N, 3.4512°W)
Time: 17:19:32
(UTC+00:00)

Cosmos 1354 Rocket - Pass Details

Date: 08 May 2021
Orbit: 764 x 784 km, 74.0° (Epoch: 16 June)

Event Time Altitude Azimuth Distance (km) Brightness Sun altitude
Rises 21:19:37 0° 200° (SSW) 3,215 6.9 -14.3°
Reaches altitude 10° 21:21:58 10° 200° (SSW) 2,294 6.2 -14.5°
Maximum altitude 21:27:11 87° 113° (ESE) 773 3.9 -15.1°
Drops below altitude 10° 21:32:27 10° 23° (NNE) 2,318 6.8 -15.6°
Sets 21:34:51 0° 24° (NNE) 3,251 7.6 -15.9°
